DLH914 EDDF-EGLL

Flight info

Callsign DLH914
Flight time N/A
Altitude 30000
Route OBOKA3W/25C OBOKA Z29 TORNU DCT ABNED L980 LOGAN
Aircraft A21N/M-SDE3FGHIRWY/LB1

Departure

Time 2026-05-04 09:51
Airport Frankfurt Main Airport (EDDF)

Arrival

Time N/A
Airport London Heathrow Airport (EGLL)
Time Latitude Longitude Altitude Speed Heading
2026-05-04 09:26 50.04429 8.56272 354 ft 0 kts 164°
2026-05-04 09:40 50.04430 8.56272 354 ft 1 kts 165°
2026-05-04 09:40 50.04443 8.56266 354 ft 2 kts 164°
2026-05-04 09:40 50.04457 8.56260 354 ft 2 kts 164°
2026-05-04 09:40 50.04472 8.56254 354 ft 2 kts 185°
2026-05-04 09:41 50.04485 8.56263 354 ft 2 kts 227°
2026-05-04 09:42 50.04492 8.56284 354 ft 0 kts 250°
2026-05-04 09:43 50.04492 8.56283 354 ft 0 kts 250°
2026-05-04 09:44 50.04488 8.56264 354 ft 3 kts 251°
2026-05-04 09:44 50.04474 8.56203 354 ft 7 kts 251°
2026-05-04 09:44 50.04451 8.56102 354 ft 11 kts 250°
2026-05-04 09:46 50.04322 8.57104 354 ft 25 kts 71°
2026-05-04 09:46 50.04385 8.57367 354 ft 25 kts 72°
2026-05-04 09:46 50.04447 8.57615 354 ft 23 kts 72°
2026-05-04 09:47 50.04499 8.57849 354 ft 22 kts 70°
2026-05-04 09:47 50.04552 8.58069 354 ft 21 kts 68°
2026-05-04 09:49 50.04599 8.58585 354 ft 2 kts 156°
2026-05-04 09:49 50.04565 8.58607 354 ft 7 kts 160°
2026-05-04 09:49 50.04500 8.58598 354 ft 12 kts 221°
2026-05-04 09:51 50.02881 8.51769 1518 ft 191 kts 249°
2026-05-04 09:51 50.02298 8.49931 2141 ft 195 kts 232°
2026-05-04 09:51 50.01270 8.48540 2546 ft 204 kts 208°
2026-05-04 09:51 49.99869 8.47865 2847 ft 220 kts 190°
2026-05-04 09:52 49.98297 8.47528 3178 ft 237 kts 188°
2026-05-04 09:52 49.96639 8.47174 3665 ft 246 kts 191°
2026-05-04 09:52 49.94980 8.46565 4324 ft 247 kts 197°
2026-05-04 09:52 49.93309 8.45815 5005 ft 249 kts 198°
2026-05-04 09:53 49.91709 8.44791 5644 ft 251 kts 217°
2026-05-04 09:53 49.90556 8.42841 6289 ft 251 kts 239°
2026-05-04 09:53 49.89671 8.40503 6970 ft 252 kts 240°
2026-05-04 09:53 49.88872 8.38155 7573 ft 256 kts 250°
2026-05-04 09:54 49.88547 8.35426 8137 ft 263 kts 269°
2026-05-04 09:54 49.88664 8.32487 8517 ft 277 kts 274°
2026-05-04 09:54 49.88853 8.29495 9084 ft 282 kts 275°
2026-05-04 09:54 49.89310 8.26533 9714 ft 287 kts 290°
2026-05-04 09:55 49.90302 8.23779 10330 ft 292 kts 303°
2026-05-04 09:55 49.91519 8.21221 10651 ft 305 kts 305°
2026-05-04 09:55 49.92852 8.18524 10927 ft 321 kts 306°
2026-05-04 09:55 49.94344 8.15863 11189 ft 336 kts 311°
2026-05-04 09:56 49.96064 8.13309 11439 ft 351 kts 316°
2026-05-04 09:56 49.97924 8.10806 11712 ft 363 kts 317°
2026-05-04 09:56 49.99889 8.08200 11950 ft 376 kts 317°
2026-05-04 09:56 50.01908 8.05523 12168 ft 388 kts 317°
2026-05-04 09:57 50.03991 8.02748 12382 ft 400 kts 317°
2026-05-04 09:57 50.06148 7.99866 12663 ft 409 kts 317°
2026-05-04 09:57 50.08313 7.96968 13123 ft 412 kts 317°
2026-05-04 09:57 50.10494 7.94041 13608 ft 415 kts 317°
2026-05-04 09:58 50.12674 7.91108 14047 ft 417 kts 317°
2026-05-04 09:58 50.14910 7.88095 14497 ft 420 kts 317°
2026-05-04 09:58 50.17118 7.85120 14912 ft 423 kts 316°
2026-05-04 10:00 50.34717 7.67413 17572 ft 446 kts 334°
2026-05-04 10:00 50.37584 7.65484 17915 ft 448 kts 334°
2026-05-04 10:02 50.57635 7.51004 20105 ft 458 kts 326°
2026-05-04 10:04 50.75509 7.30150 22583 ft 442 kts 301°
2026-05-04 10:04 50.77047 7.26093 23352 ft 428 kts 294°
2026-05-04 10:04 50.78412 7.21951 24157 ft 417 kts 292°
2026-05-04 10:04 50.79700 7.17939 24978 ft 406 kts 292°
2026-05-04 10:05 50.80953 7.14034 25791 ft 396 kts 292°
2026-05-04 10:05 50.82187 7.10201 26614 ft 384 kts 291°
2026-05-04 10:05 50.83366 7.06547 27423 ft 373 kts 291°
2026-05-04 10:05 50.84524 7.02962 28246 ft 361 kts 291°
2026-05-04 10:06 50.85643 6.99501 29027 ft 350 kts 291°
2026-05-04 10:06 50.86760 6.96025 29230 ft 355 kts 291°
2026-05-04 10:06 50.87880 6.92525 29236 ft 364 kts 291°
2026-05-04 10:08 50.95010 6.70250 29965 ft 397 kts 291°
2026-05-04 10:08 50.96263 6.66315 29963 ft 405 kts 291°
2026-05-04 10:08 50.98838 6.58217 29957 ft 419 kts 291°
2026-05-04 10:09 51.01485 6.49867 29956 ft 432 kts 291°
2026-05-04 10:09 51.04223 6.41207 29956 ft 444 kts 291°
2026-05-04 10:10 51.06992 6.32427 29958 ft 451 kts 291°
2026-05-04 10:10 51.09803 6.23477 29958 ft 452 kts 291°
2026-05-04 10:11 51.12497 6.14582 29963 ft 450 kts 288°
2026-05-04 10:11 51.14682 6.05261 29968 ft 446 kts 282°
2026-05-04 10:12 51.16315 5.95773 29965 ft 445 kts 279°
2026-05-04 10:12 51.17928 5.86194 29963 ft 447 kts 282°
2026-05-04 10:13 51.20044 5.76814 29962 ft 451 kts 287°
2026-05-04 10:13 51.22461 5.67597 29961 ft 452 kts 287°
2026-05-04 10:14 51.24893 5.58369 29959 ft 451 kts 287°
2026-05-04 10:16 51.34542 5.21335 29961 ft 451 kts 286°
2026-05-04 10:16 51.36937 5.12039 29960 ft 451 kts 286°
2026-05-04 10:17 51.39313 5.02770 29961 ft 451 kts 287°
2026-05-04 10:19 51.48761 4.65574 29966 ft 451 kts 287°
2026-05-04 10:19 51.51106 4.56248 29967 ft 452 kts 287°
2026-05-04 10:20 51.53458 4.46855 29969 ft 451 kts 287°
2026-05-04 10:20 51.55788 4.37508 29970 ft 450 kts 287°
2026-05-04 10:21 51.58105 4.28166 29974 ft 451 kts 286°
2026-05-04 10:21 51.60433 4.18750 29982 ft 452 kts 286°
2026-05-04 10:22 51.63911 4.04603 29967 ft 453 kts 286°
2026-05-04 10:23 51.66205 3.95219 29958 ft 453 kts 286°
2026-05-04 10:25 51.75357 3.57381 29960 ft 453 kts 286°
2026-05-04 10:25 51.77624 3.47918 29961 ft 453 kts 286°
2026-05-04 10:26 51.79887 3.38422 29955 ft 453 kts 286°
2026-05-04 10:26 51.82129 3.28966 29962 ft 452 kts 285°
2026-05-04 10:27 51.83856 3.19380 29964 ft 444 kts 275°
2026-05-04 10:27 51.84302 3.09516 29972 ft 436 kts 264°
2026-05-04 10:28 51.83780 2.99799 29971 ft 436 kts 261°
2026-05-04 10:28 51.83138 2.90082 29970 ft 436 kts 260°
2026-05-04 10:29 51.82485 2.80256 29971 ft 436 kts 261°
2026-05-04 10:29 51.81836 2.70561 29740 ft 431 kts 261°
2026-05-04 10:29 51.81514 2.65806 29017 ft 431 kts 261°
2026-05-04 10:30 51.81175 2.60917 27920 ft 438 kts 261°
2026-05-04 10:30 51.80833 2.56043 26788 ft 444 kts 261°
2026-05-04 10:30 51.80491 2.51163 25851 ft 445 kts 262°
2026-05-04 10:30 51.80141 2.46144 25239 ft 448 kts 262°
2026-05-04 10:31 51.79795 2.41199 24984 ft 450 kts 262°
2026-05-04 10:31 51.79440 2.36169 24980 ft 450 kts 262°
2026-05-04 10:32 51.77475 2.05964 24985 ft 452 kts 263°
2026-05-04 10:33 51.77182 2.00944 24977 ft 451 kts 263°
2026-05-04 10:33 51.76883 1.95872 24979 ft 452 kts 263°
2026-05-04 10:33 51.76582 1.90861 24979 ft 452 kts 263°
2026-05-04 10:33 51.76279 1.85859 24983 ft 452 kts 263°
2026-05-04 10:34 51.75973 1.80828 24936 ft 446 kts 263°
2026-05-04 10:34 51.75674 1.75942 24736 ft 433 kts 263°
2026-05-04 10:34 51.75377 1.71120 24491 ft 420 kts 263°
2026-05-04 10:34 51.75090 1.66530 24258 ft 407 kts 262°
2026-05-04 10:35 51.74811 1.62097 23928 ft 398 kts 263°
2026-05-04 10:35 51.74532 1.57716 23373 ft 394 kts 262°
2026-05-04 10:35 51.74249 1.53306 22747 ft 392 kts 263°
2026-05-04 10:35 51.73970 1.48990 22145 ft 390 kts 263°
2026-05-04 10:36 51.73692 1.44674 21561 ft 388 kts 263°
2026-05-04 10:36 51.73410 1.40353 20968 ft 386 kts 263°
2026-05-04 10:36 51.73132 1.36083 20385 ft 384 kts 263°
2026-05-04 10:36 51.72854 1.31833 19869 ft 381 kts 262°
2026-05-04 10:37 51.72578 1.27619 19590 ft 371 kts 262°
2026-05-04 10:37 51.72311 1.23591 18862 ft 376 kts 262°
2026-05-04 10:37 51.72032 1.19401 18122 ft 379 kts 263°
2026-05-04 10:37 51.71749 1.15170 17573 ft 377 kts 263°
2026-05-04 10:39 51.70118 0.91192 15320 ft 327 kts 263°
2026-05-04 10:39 51.69870 0.87622 15094 ft 317 kts 263°
2026-05-04 10:39 51.69624 0.84107 14904 ft 307 kts 263°
2026-05-04 10:40 51.69389 0.80743 14640 ft 301 kts 263°
2026-05-04 10:40 51.69156 0.77426 14255 ft 299 kts 263°
2026-05-04 10:40 51.68922 0.74137 13860 ft 298 kts 263°
2026-05-04 10:40 51.68687 0.70824 13469 ft 296 kts 263°
2026-05-04 10:41 51.68454 0.67547 13079 ft 295 kts 263°
2026-05-04 10:41 51.68222 0.64293 12699 ft 293 kts 263°
2026-05-04 10:41 51.67988 0.61028 12320 ft 291 kts 263°
2026-05-04 10:41 51.67752 0.57753 11940 ft 289 kts 263°
2026-05-04 10:42 51.67520 0.54560 11564 ft 288 kts 263°
2026-05-04 10:42 51.67288 0.51364 11182 ft 286 kts 263°
2026-05-04 10:42 51.67060 0.48232 10810 ft 285 kts 263°
2026-05-04 10:42 51.66827 0.45044 10423 ft 283 kts 263°
2026-05-04 10:43 51.66596 0.41905 10052 ft 281 kts 263°
2026-05-04 10:44 51.65005 0.20558 7401 ft 274 kts 263°
2026-05-04 10:45 51.64774 0.17503 7063 ft 271 kts 263°
2026-05-04 10:45 51.64647 0.14574 6999 ft 257 kts 269°
2026-05-04 10:45 51.64698 0.11754 6990 ft 243 kts 272°
2026-05-04 10:45 51.64790 0.09057 6998 ft 242 kts 273°
2026-05-04 10:46 51.64884 0.06363 7003 ft 242 kts 272°
2026-05-04 10:46 51.64977 0.03646 7007 ft 242 kts 272°
2026-05-04 10:46 51.65067 0.00938 7008 ft 242 kts 272°
2026-05-04 10:46 51.65156 -0.01794 7006 ft 242 kts 272°
2026-05-04 10:47 51.65243 -0.04507 7005 ft 243 kts 272°
2026-05-04 10:47 51.65328 -0.07206 7004 ft 243 kts 273°
2026-05-04 10:47 51.65414 -0.09925 7005 ft 243 kts 273°
2026-05-04 10:47 51.65499 -0.12642 7006 ft 243 kts 273°
2026-05-04 10:49 51.57275 -0.21101 5988 ft 237 kts 143°
2026-05-04 10:49 51.56187 -0.19150 6021 ft 232 kts 124°
2026-05-04 10:50 51.55315 -0.17081 5967 ft 218 kts 124°
2026-05-04 10:51 51.48636 -0.17355 3655 ft 193 kts 253°
2026-05-04 10:52 51.48216 -0.19377 3384 ft 186 kts 254°
2026-05-04 10:52 51.47943 -0.21347 3171 ft 175 kts 263°
2026-05-04 10:52 51.47830 -0.23329 2683 ft 183 kts 270°